Showing default

NUSAT-38 (MARIA AGNESI), 56202

Orbit data source: Space-Track

NUSAT-38 (MARIA AGNESI), 56202 is a payload satellite owned by URUGUS S.A. (AR) in SSO that was launched on Sat, 15 Apr 2023 UTC via an FALCON 9 launch vehicle from the Air Force Western Test Range (AFWTR). Payload-class satellites include a variety of spacecraft equipped with specific instruments for various scientific and technological missions. These include communications satellites like Starlink; space stations such as the ISS; scientific satellites like the Hubble; Earth observation satellites from companies like Planet Labs, Umbra, and HawkEye 360; GPS; miniature CubeSats for education and research; and military/defense satellites.

Not visible in the next 10 days
Identifier
56202, 2023-054AA
Orbit
SSO
Country
Flag of UnknownUnknown / ARGN
Related business
Manufacturer
URUGUS S.A.
Mission
Operational Commercial Imaging
Bus & Motor
NEWSAT V, Unknown motor
Mass
41.5 kg wet, 38.5 kg dry
Launch date (UTC)
2023-04-15 (3 years ago)
Launch vehicle
FALCON 9
Launch site
Air Force Western Test Range (AFWTR)
Object type
Payload
Rocket body
Debris
Shape & HBR
Box, 1.0 m
Radar Cross Section
0.542 m², Medium (>0.1 m² and < 1m²)

Expand to show TLE details & history
Last TLE update: 6 hours ago

TLE from 6 hours ago
0 NUSAT-38 (MARIA AGNESI)
1 56202U 23054AA  25347.04979021  .00034007  00000-0  83315-3 0  9999
2 56202  97.3179 251.3820 0017488  23.8100 336.3951 15.40513564149789
Epoch: 2025-12-13T01:11Z
TLE epoch observation values (Epoch: 2025-12-13T01:11:41.874Z)
Latitude
-0.00007°
Longitude
151.4749°
Altitude
436.781 km
Speed
7.656 km/s
True Right ascension
16h 45m 31s
True Declination
0° 00' 00"
Sunlit
Object was in daylight at epoch
Visualization orbit readout
Latitude
Unknown
Longitude
Unknown
Altitude
Unknown
Speed
Unknown
Apparent Right ascension
Unknown
Apparent Declination
Unknown
Sunlit
N/A
Visualization observer readout
Local Sidereal Time
05:23:57
Azimuth
Unknown
Elevation
Unknown
Doppler factor
Unknown
Orbital elements
Apogee altitude
453.454 km
Perigee altitude
429.601 km
Semi-major axis
6,819.664 km
Eccentricity
0.00175
Inclination
97.3179°
RAAN
251.382°
Arg. of periapsis
23.81°
True anomaly
336.31469°
Mean anomaly
336.3951°
Eccentric anomaly
336.35491°
Mean motion
3.85388 °/min
Orbital period
93.41 mins
BSTAR
0.00083315
Loading maneuver chart data...
Computing Atmospheric mass density...
Loading historical data...
Loading historical data...
Loading historical data...
Loading historical data...
Loading historical data...
Loading historical data...
Loading historical data...

Documentation

Showing up to 5 results
|